[[{"header":{"parameterUnit":"m.s-1","parameterCategory":2,"la1":30.2991,"la2":30.254,"lo1":-89.0895,"lo2":-89.0444,"dy":0.0017,"dx":0.0017,"nx":28,"ny":28,"refTime":"2025-01-14T09:00:00:Z","depth":"0","parameterNumber":2,"parameterNumberName":"U-component_of_CURRENTS"},"data":[0,0,0,0,0,0,0,0,0,0,0,0,0,0,0,0,0,0,0,0,0,0,0,0,0,0,0,0,0,0,0,0,0,0,0,0,0,0,0,0,0,0,0,0,0,0,0,0,0,0,0,0,0,0,0,0,0,0,-0.2094,-0.2093,0,-0.2081,-0.2081,-0.2082,-0.2087,-0.2087,-0.2087,-0.2087,-0.2101,-0.2102,-0.2102,0,0,0,0,0,0,0,0,0,0,0,0,0,-0.2079,-0.208,-0.2094,-0.2093,-0.2093,-0.2081,-0.2081,-0.2082,-0.2087,-0.2087,-0.2087,-0.2087,-0.2101,-0.2102,-0.2102,0,0,0,0,0,0,0,0,0,0,0,0,0,-0.2082,-0.208,-0.2094,-0.2091,-0.2091,-0.2081,-0.2082,-0.2082,-0.2087,-0.2087,-0.2087,-0.2087,-0.2101,-0.2102,-0.2102,-0.2108,0,0,-0.2104,-0.2104,0,0,0,0,0,0,0,0,-0.2081,-0.2083,-0.2092,-0.2091,-0.2091,-0.2082,-0.2081,-0.209,-0.2087,-0.2092,-0.2087,-0.2087,-0.2095,-0.2096,-0.2099,-0.2108,-0.2109,-0.2104,-0.2105,-0.2105,-0.2105,0,0,0,0,0,0,0,-0.2081,-0.2083,-0.2093,-0.2092,-0.2091,-0.2075,-0.2077,-0.2083,-0.2098,-0.2092,-0.2091,-0.2084,-0.2095,-0.2098,-0.2099,-0.2109,-0.2104,-0.2105,-0.2105,-0.2105,-0.2154,-0.2155,0,0,0,0,0,0,-0.2078,-0.2083,-0.2093,-0.2092,-0.2081,-0.2076,-0.2077,-0.2088,-0.2097,-0.2097,-0.2084,-0.2084,-0.2097,-0.2099,-0.21,-0.2141,-0.2105,-0.2105,-0.2106,-0.2153,-0.2154,-0.2155,0,0,0,0,0,0,-0.2078,-0.208,-0.2094,-0.2083,-0.2083,-0.2076,-0.2088,-0.2088,-0.2094,-0.209,-0.2091,-0.209,-0.2097,-0.2099,-0.211,-0.2141,-0.2106,-0.2106,-0.2152,-0.2153,-0.2154,-0.2202,0,0,0,0,0,0,-0.2078,-0.208,-0.2087,-0.2083,-0.2083,-0.2108,-0.2088,-0.2087,-0.2087,-0.2088,-0.2096,-0.2097,-0.2097,-0.2109,-0.2111,-0.2141,-0.2107,-0.2151,-0.2152,-0.2154,-0.22,-0.2205,-0.221,0,0,0,0,0,-0.2078,-0.2103,-0.2088,-0.2088,-0.2094,-0.2109,-0.2109,-0.2104,-0.2088,-0.2107,-0.2099,-0.2097,-0.2122,-0.211,-0.2112,-0.2143,-0.215,-0.2152,-0.2154,-0.2197,-0.2204,-0.221,0,0,0,0,0,0,-0.2105,-0.2105,-0.2089,-0.2113,-0.2112,-0.2109,-0.2118,-0.2107,-0.2114,-0.2111,-0.2103,-0.2104,-0.2129,-0.2125,-0.2112,-0.2161,-0.2138,-0.214,-0.2171,-0.2177,-0.2182,-0.2205,-0.2107,0,0,0,0,0,-0.2109,-0.2124,-0.2118,-0.2134,-0.2135,-0.2122,-0.2123,-0.2122,-0.2122,-0.2125,-0.2129,-0.2131,-0.2139,-0.2147,-0.2157,-0.2178,-0.2173,-0.2201,-0.2206,-0.221,-0.223,-0.2237,-0.2245,-0.2161,-0.2161,-0.2161,0,0,-0.2113,-0.212,-0.2123,-0.2138,-0.2134,-0.2148,-0.2125,-0.2138,-0.2154,-0.2126,-0.2155,-0.215,-0.2148,-0.2177,-0.2188,-0.2176,-0.2229,-0.2213,-0.2216,-0.2234,-0.224,-0.2248,-0.2256,-0.2163,-0.2163,-0.2162,0,0,-0.2134,-0.2145,-0.2157,-0.2168,-0.2169,-0.2172,-0.2176,-0.218,-0.2191,-0.2204,-0.2193,-0.221,-0.2213,-0.2233,-0.2235,-0.2275,-0.2255,-0.227,-0.2318,-0.2324,-0.2331,-0.2338,-0.233,-0.2336,-0.2273,-0.2274,-0.2274,0,-0.2125,-0.2151,-0.2163,-0.2183,-0.2188,-0.2184,-0.2197,-0.2217,-0.2226,-0.224,-0.2222,-0.2247,-0.2248,-0.2287,-0.2301,-0.2291,-0.2276,-0.2293,-0.2332,-0.2338,-0.2343,-0.2334,-0.234,-0.2276,-0.2276,-0.2276,-0.2275,0,-0.2153,-0.2171,-0.2186,-0.2206,-0.2227,-0.224,-0.2263,-0.2291,-0.2289,-0.2299,-0.2336,-0.2337,-0.235,-0.2356,-0.2338,-0.2385,-0.2355,-0.2335,-0.2316,-0.2355,-0.2342,-0.2347,-0.228,-0.2279,-0.2278,-0.2277,0,0,-0.211,-0.2183,-0.2181,-0.2193,-0.2236,-0.2251,-0.2304,-0.2339,-0.2365,-0.2389,-0.2415,-0.2447,-0.2444,-0.2448,-0.2438,-0.2452,-0.2475,-0.241,-0.241,-0.2405,-0.2472,-0.2387,-0.2383,-0.2449,-0.245,-0.2451,-0.2443,0,-0.2103,-0.214,-0.2192,-0.2223,-0.2233,-0.2281,-0.233,-0.2375,-0.2402,-0.2437,-0.2462,-0.2481,-0.2479,-0.2474,-0.2497,-0.2477,-0.249,-0.2478,-0.2435,-0.2434,-0.2355,-0.2387,-0.2271,-0.2248,-0.2447,-0.2448,-0.2448,0,-0.2082,-0.2117,-0.2141,-0.2218,-0.223,-0.2261,-0.2328,-0.2377,-0.2449,-0.247,-0.2514,-0.2522,-0.2568,-0.2538,-0.2565,-0.2548,-0.2522,-0.2508,-0.2506,-0.2419,-0.2358,-0.2244,-0.2248,-0.2244,-0.2455,-0.2455,-0.2454,0,-0.1996,-0.2072,-0.2087,-0.2108,-0.2202,-0.2232,-0.2287,-0.2371,-0.242,-0.2484,-0.2509,-0.2564,-0.2569,-0.2578,-0.2561,-0.2555,-0.2562,-0.2545,-0.2453,-0.2446,-0.2338,-0.2318,-0.2336,-0.2562,-0.2562,-0.2562,-0.2562,0,-0.1941,-0.1958,-0.2046,-0.2049,-0.209,-0.2179,-0.2231,-0.2298,-0.2391,-0.2443,-0.2512,-0.2543,-0.2574,-0.2583,-0.2571,-0.2524,-0.2571,-0.2475,-0.2445,-0.2348,-0.2331,-0.2313,-0.2331,-0.2561,-0.2561,-0.2562,-0.2562,0,-0.184,-0.189,-0.1918,-0.2012,-0.2038,-0.2066,-0.2191,-0.2245,-0.2338,-0.2403,-0.2424,-0.2519,-0.2528,-0.2548,-0.2542,-0.2515,-0.2438,-0.2455,-0.2332,-0.2288,-0.2192,-0.2216,-0.2176,-0.2118,-0.2362,-0.236,-0.2358,0,-0.1795,-0.1789,-0.1863,-0.1884,-0.1924,-0.1989,-0.2046,-0.2179,-0.2247,-0.2383,-0.2408,-0.245,-0.2445,-0.2423,-0.2387,-0.2345,-0.2348,-0.2217,-0.2198,-0.2182,-0.2189,-0.2185,-0.214,-0.2071,-0.2067,-0.2064,-0.2061,0,-0.1714,-0.1729,-0.1754,-0.1788,-0.1835,-0.1903,-0.1994,-0.2035,-0.2195,-0.223,-0.2279,-0.228,-0.2293,-0.2204,-0.2168,-0.2132,-0.2151,-0.2148,-0.2169,-0.2001,-0.1962,-0.1891,-0.2082,-0.2033,-0.2036,-0.2038,-0.2039,-0.204,-0.1649,-0.1645,-0.1664,-0.1699,-0.175,-0.1797,-0.1804,-0.1899,-0.1938,-0.1989,-0.2084,-0.2063,-0.2065,-0.1991,-0.1964,-0.1889,-0.1935,-0.1837,-0.1879,-0.1886,-0.18,-0.1922,-0.1814,-0.1816,-0.1817,-0.1818,-0.182,0,-0.1573,-0.1576,-0.1591,-0.1614,-0.1625,-0.1687,-0.1758,-0.1736,-0.1707,-0.1789,-0.1777,-0.1813,-0.1732,-0.1775,-0.1725,-0.1655,-0.1613,-0.1625,-0.1615,-0.159,-0.1722,-0.1679,-0.149,-0.149,-0.149,-0.149,-0.149,-0.149,-0.1532,-0.1507,-0.1516,-0.1482,-0.1496,-0.1461,-0.1464,-0.1419,-0.1442,-0.1416,-0.1476,-0.1575,-0.1658,-0.1733,-0.1653,-0.1571,-0.1546,-0.1461,-0.1518,-0.1646,-0.167,-0.1693,-0.1657,-0.1467,-0.1467,-0.1302,-0.1302,-0.1301]},{"header":{"parameterUnit":"m.s-1","parameterCategory":2,"la1":30.2991,"la2":30.254,"lo1":-89.0895,"lo2":-89.0444,"dy":0.0017,"dx":0.0017,"nx":28,"ny":28,"refTime":"2025-01-14T09:00:00:Z","depth":"0","parameterNumber":3,"parameterNumberName":"V-component_of_CURRENTS"},"data":[0,0,0,0,0,0,0,0,0,0,0,0,0,0,0,0,0,0,0,0,0,0,0,0,0,0,0,0,0,0,0,0,0,0,0,0,0,0,0,0,0,0,0,0,0,0,0,0,0,0,0,0,0,0,0,0,0,0,-0.0711,-0.071,0,-0.0646,-0.0646,-0.0645,-0.0607,-0.0607,-0.0606,-0.0606,-0.0532,-0.053,-0.0529,0,0,0,0,0,0,0,0,0,0,0,0,0,-0.0785,-0.0784,-0.0711,-0.071,-0.0709,-0.0647,-0.0646,-0.0645,-0.0608,-0.0607,-0.0606,-0.0606,-0.0532,-0.0531,-0.0529,0,0,0,0,0,0,0,0,0,0,0,0,0,-0.0743,-0.0784,-0.0711,-0.068,-0.0676,-0.0647,-0.0646,-0.0645,-0.0608,-0.0607,-0.0606,-0.0606,-0.0533,-0.0531,-0.0528,-0.0528,0,0,-0.0521,-0.052,0,0,0,0,0,0,0,0,-0.0746,-0.0741,-0.0686,-0.0682,-0.0678,-0.0631,-0.0644,-0.0604,-0.0608,-0.0637,-0.0606,-0.0605,-0.0563,-0.0558,-0.0552,-0.0524,-0.0521,-0.0521,-0.052,-0.0519,-0.0518,0,0,0,0,0,0,0,-0.0749,-0.0743,-0.0689,-0.0685,-0.068,-0.0663,-0.0657,-0.0637,-0.0607,-0.0635,-0.0631,-0.0619,-0.0561,-0.0554,-0.055,-0.052,-0.0521,-0.0519,-0.0518,-0.0517,-0.0482,-0.0483,0,0,0,0,0,0,-0.0751,-0.0746,-0.0691,-0.0687,-0.0707,-0.0662,-0.0656,-0.065,-0.0607,-0.0599,-0.0619,-0.0617,-0.0559,-0.0553,-0.0547,-0.0543,-0.0519,-0.0517,-0.0515,-0.0482,-0.0482,-0.0483,0,0,0,0,0,0,-0.0753,-0.0748,-0.0693,-0.0712,-0.0703,-0.0662,-0.0655,-0.0649,-0.064,-0.0595,-0.0587,-0.0617,-0.0558,-0.055,-0.0537,-0.054,-0.0515,-0.0513,-0.0481,-0.0482,-0.0483,-0.0536,0,0,0,0,0,0,-0.0756,-0.0749,-0.0756,-0.0712,-0.0702,-0.0684,-0.0656,-0.0648,-0.0632,-0.0629,-0.0591,-0.0583,-0.0557,-0.0541,-0.0535,-0.0536,-0.0512,-0.0481,-0.0481,-0.0482,-0.0533,-0.0538,-0.0542,0,0,0,0,0,-0.0759,-0.0791,-0.0757,-0.075,-0.071,-0.0684,-0.0678,-0.0648,-0.0633,-0.0637,-0.0612,-0.0584,-0.0542,-0.054,-0.0533,-0.0533,-0.048,-0.0481,-0.0482,-0.0531,-0.0537,-0.0542,0,0,0,0,0,0,-0.0822,-0.0788,-0.075,-0.0766,-0.0721,-0.0676,-0.0687,-0.0653,-0.0637,-0.0634,-0.0594,-0.0585,-0.0567,-0.055,-0.0548,-0.0526,-0.0505,-0.0505,-0.0545,-0.055,-0.0554,-0.0574,-0.051,0,0,0,0,0,-0.0836,-0.0853,-0.0792,-0.0799,-0.0785,-0.0731,-0.0719,-0.0686,-0.0659,-0.0651,-0.0624,-0.0596,-0.0567,-0.056,-0.0531,-0.0529,-0.0485,-0.0524,-0.0528,-0.0532,-0.0544,-0.0476,-0.0475,-0.0486,-0.0486,-0.0486,0,0,-0.0853,-0.0842,-0.0844,-0.0814,-0.0784,-0.0762,-0.0725,-0.0708,-0.0691,-0.0646,-0.0642,-0.0607,-0.0568,-0.0557,-0.0548,-0.0544,-0.0504,-0.0534,-0.0537,-0.0547,-0.0476,-0.0475,-0.0474,-0.0487,-0.0487,-0.0487,0,0,-0.0892,-0.0891,-0.0903,-0.0879,-0.0834,-0.0802,-0.0796,-0.0747,-0.0734,-0.0716,-0.0672,-0.0647,-0.0619,-0.0587,-0.0567,-0.0582,-0.0522,-0.0572,-0.0619,-0.0553,-0.0551,-0.0549,-0.0485,-0.0477,-0.0584,-0.0584,-0.0584,0,-0.09,-0.0908,-0.0899,-0.0897,-0.0881,-0.0821,-0.0806,-0.0788,-0.074,-0.0732,-0.0724,-0.0664,-0.0632,-0.0601,-0.0612,-0.0591,-0.0545,-0.0601,-0.0558,-0.0555,-0.0552,-0.0486,-0.0477,-0.0587,-0.0586,-0.0586,-0.0586,0,-0.0921,-0.0931,-0.0945,-0.0919,-0.091,-0.0895,-0.0853,-0.0843,-0.0821,-0.0788,-0.0761,-0.0721,-0.0682,-0.0669,-0.065,-0.0615,-0.0585,-0.0561,-0.0544,-0.0554,-0.0484,-0.0473,-0.059,-0.0589,-0.0589,-0.0588,0,0,-0.0908,-0.0946,-0.0944,-0.0949,-0.0919,-0.0913,-0.0905,-0.0871,-0.087,-0.0831,-0.0818,-0.0779,-0.0749,-0.0725,-0.0686,-0.065,-0.0588,-0.0613,-0.0608,-0.0549,-0.0439,-0.0369,-0.035,-0.0553,-0.0551,-0.055,-0.0396,0,-0.0902,-0.0929,-0.0943,-0.0954,-0.096,-0.0936,-0.0943,-0.0915,-0.0896,-0.0878,-0.0824,-0.0802,-0.077,-0.0758,-0.0709,-0.0611,-0.0563,-0.0632,-0.0439,-0.0433,-0.037,-0.0336,-0.0323,-0.018,-0.0385,-0.0383,-0.0381,0,-0.0894,-0.0923,-0.0943,-0.0991,-0.099,-0.099,-0.0995,-0.0989,-0.0953,-0.094,-0.0898,-0.0857,-0.079,-0.077,-0.0606,-0.065,-0.0556,-0.0488,-0.0479,-0.0391,-0.0343,-0.0204,-0.0152,-0.0031,-0.0364,-0.0365,-0.0366,0,-0.0891,-0.0925,-0.0954,-0.096,-0.0993,-0.1007,-0.1012,-0.1002,-0.1016,-0.0973,-0.097,-0.0878,-0.0825,-0.0704,-0.0555,-0.0579,-0.0366,-0.0369,-0.0217,-0.0211,-0.0151,-0.0141,0.0041,-0.0257,-0.0257,-0.0258,-0.0258,0,-0.0889,-0.0914,-0.0962,-0.0978,-0.1023,-0.1033,-0.1068,-0.1064,-0.1058,-0.1063,-0.0999,-0.0967,-0.0809,-0.0673,-0.0546,-0.0326,-0.0339,-0.0214,-0.0161,-0.0168,-0.0163,-0.0016,0.0021,-0.0252,-0.0253,-0.0254,-0.0255,0,-0.0893,-0.0916,-0.0964,-0.101,-0.103,-0.1062,-0.1116,-0.1146,-0.1127,-0.1124,-0.1115,-0.1009,-0.0819,-0.0643,-0.042,-0.03,-0.0029,-0.0038,-0.0056,-0.0009,0.0223,0.0255,0.0483,0.0543,0.0145,0.0148,0.015,0,-0.0904,-0.0925,-0.0992,-0.1035,-0.1063,-0.1114,-0.1159,-0.1174,-0.1207,-0.1144,-0.1143,-0.0973,-0.0834,-0.0466,-0.0226,0.0044,0.0111,0.0198,0.0148,0.0255,0.0329,0.0341,0.0374,0.0211,0.0213,0.0215,0.0217,0,-0.0924,-0.0942,-0.0985,-0.1076,-0.1138,-0.1204,-0.1261,-0.1292,-0.1291,-0.125,-0.1146,-0.1021,-0.0674,-0.0356,-0.0013,0.0136,0.028,0.025,0.0371,0.0408,0.0423,0.0499,0.0086,0.0236,0.0234,0.0233,0.0232,0.0231,-0.0933,-0.0975,-0.1036,-0.1123,-0.1205,-0.1282,-0.1319,-0.1341,-0.1338,-0.1257,-0.1137,-0.0912,-0.0497,-0.0004,0.0175,0.052,0.047,0.0593,0.0628,0.0635,0.0679,0.031,0.0511,0.051,0.051,0.051,0.051,0,-0.0932,-0.0994,-0.1085,-0.1191,-0.1286,-0.1314,-0.1387,-0.1384,-0.1341,-0.1222,-0.1068,-0.0617,-0.0183,0.0192,0.0686,0.0871,0.0876,0.0956,0.0961,0.0979,0.0673,0.0661,0.0891,0.0891,0.0891,0.0891,0.0891,0.0891,-0.0934,-0.1011,-0.1071,-0.1234,-0.1314,-0.1404,-0.1429,-0.1375,-0.13,-0.1051,-0.0811,-0.0638,-0.009,0.0711,0.1163,0.1201,0.1311,0.1317,0.1387,0.1154,0.1121,0.109,0.1089,0.1405,0.1406,0.1656,0.1658,0.166]}],[{"header":{"parameterUnit":"m.s-1","parameterCategory":2,"la1":30.2991,"la2":30.254,"lo1":-89.0895,"lo2":-89.0444,"dy":0.0017,"dx":0.0017,"nx":28,"ny":28,"refTime":"2025-01-14T09:00:00:Z","depth":"2","parameterNumber":2,"parameterNumberName":"U-component_of_CURRENTS"},"data":[0,0,0,0,0,0,0,0,0,0,0,0,0,0,0,0,0,0,0,0,0,0,0,0,0,0,0,0,0,0,0,0,0,0,0,0,0,0,0,0,0,0,0,0,0,0,0,0,0,0,0,0,0,0,0,0,0,0,-0.1784,-0.1783,0,-0.1759,-0.1759,-0.1758,-0.1756,-0.1756,-0.1756,-0.1756,-0.1825,-0.1827,-0.1828,0,0,0,0,0,0,0,0,0,0,0,0,0,-0.1772,-0.1773,-0.1784,-0.1783,-0.1783,-0.1759,-0.1759,-0.1758,-0.1756,-0.1756,-0.1756,-0.1756,-0.1825,-0.1827,-0.1828,0,0,0,0,0,0,0,0,0,0,0,0,0,-0.1766,-0.1773,-0.1784,-0.1778,-0.1778,-0.1759,-0.1759,-0.1758,-0.1756,-0.1756,-0.1756,-0.1757,-0.1824,-0.1826,-0.1829,-0.1838,0,0,-0.1836,-0.1837,0,0,0,0,0,0,0,0,-0.1766,-0.1766,-0.1779,-0.1779,-0.1778,-0.176,-0.1779,-0.1789,-0.1756,-0.1765,-0.1756,-0.1757,-0.1812,-0.1815,-0.1809,-0.1841,-0.1844,-0.1836,-0.1838,-0.1839,-0.184,0,0,0,0,0,0,0,-0.1767,-0.1767,-0.1774,-0.1779,-0.1778,-0.1758,-0.1758,-0.1781,-0.1789,-0.1764,-0.1763,-0.176,-0.1812,-0.1807,-0.1811,-0.1845,-0.1836,-0.1839,-0.184,-0.1841,-0.1929,-0.193,0,0,0,0,0,0,-0.1771,-0.1768,-0.1775,-0.1774,-0.1772,-0.1758,-0.1758,-0.1766,-0.1786,-0.1789,-0.176,-0.176,-0.1802,-0.1808,-0.1814,-0.1874,-0.1839,-0.1841,-0.1843,-0.1928,-0.1929,-0.193,0,0,0,0,0,0,-0.1772,-0.1773,-0.1776,-0.1769,-0.1768,-0.1758,-0.1767,-0.1765,-0.1777,-0.1782,-0.1787,-0.1774,-0.1803,-0.181,-0.1863,-0.1875,-0.1842,-0.1845,-0.1927,-0.1928,-0.193,-0.1965,0,0,0,0,0,0,-0.1772,-0.1773,-0.1791,-0.177,-0.1768,-0.179,-0.1766,-0.1765,-0.1773,-0.1773,-0.1796,-0.1802,-0.1804,-0.1859,-0.1865,-0.1878,-0.1847,-0.1926,-0.1928,-0.1929,-0.1963,-0.1968,-0.1972,0,0,0,0,0,-0.1771,-0.1792,-0.1792,-0.1793,-0.179,-0.1792,-0.179,-0.1783,-0.1773,-0.1792,-0.1809,-0.1802,-0.1873,-0.1863,-0.1869,-0.1883,-0.1925,-0.1927,-0.1929,-0.1961,-0.1967,-0.1971,0,0,0,0,0,0,-0.1794,-0.1792,-0.1793,-0.1812,-0.1814,-0.1792,-0.18,-0.1794,-0.1817,-0.1824,-0.1826,-0.1834,-0.1877,-0.1881,-0.1869,-0.1912,-0.1892,-0.1896,-0.1914,-0.192,-0.1924,-0.1958,-0.1849,0,0,0,0,0,-0.1808,-0.1837,-0.1818,-0.1846,-0.1835,-0.1821,-0.1822,-0.1822,-0.183,-0.1839,-0.1858,-0.1874,-0.1886,-0.1906,-0.1922,-0.1959,-0.1962,-0.1968,-0.1972,-0.1976,-0.2008,-0.2037,-0.2048,-0.1937,-0.1936,-0.1936,0,0,-0.182,-0.1832,-0.1844,-0.1855,-0.1846,-0.1848,-0.1823,-0.1835,-0.1863,-0.1846,-0.1902,-0.1897,-0.1899,-0.1934,-0.1952,-0.1943,-0.1998,-0.1978,-0.1981,-0.2012,-0.204,-0.2051,-0.2061,-0.1938,-0.1938,-0.1937,0,0,-0.1856,-0.1869,-0.1889,-0.1888,-0.1891,-0.1889,-0.1896,-0.189,-0.1912,-0.1957,-0.1941,-0.196,-0.199,-0.1993,-0.1994,-0.2038,-0.2019,-0.2025,-0.2082,-0.2109,-0.2119,-0.2128,-0.2101,-0.2108,-0.203,-0.203,-0.203,0,-0.1864,-0.189,-0.1898,-0.1906,-0.1902,-0.1908,-0.1909,-0.194,-0.1968,-0.1989,-0.1989,-0.2019,-0.202,-0.2047,-0.2058,-0.2049,-0.2045,-0.2058,-0.2116,-0.2125,-0.2133,-0.2105,-0.2112,-0.2032,-0.2031,-0.2031,-0.2031,0,-0.1898,-0.1914,-0.1921,-0.194,-0.1951,-0.1956,-0.1978,-0.2014,-0.2036,-0.2061,-0.2109,-0.2115,-0.2126,-0.2119,-0.2107,-0.2153,-0.212,-0.2114,-0.2104,-0.2147,-0.2113,-0.2119,-0.2035,-0.2034,-0.2033,-0.2033,0,0,-0.1884,-0.1932,-0.1929,-0.1932,-0.1959,-0.1963,-0.2024,-0.2061,-0.2099,-0.2149,-0.2187,-0.2216,-0.2214,-0.2217,-0.2195,-0.223,-0.2261,-0.2206,-0.2206,-0.2182,-0.2288,-0.2194,-0.219,-0.2267,-0.2269,-0.2271,-0.2224,0,-0.1886,-0.1906,-0.1945,-0.1964,-0.1945,-0.1983,-0.2039,-0.2092,-0.2143,-0.2197,-0.2227,-0.2263,-0.2254,-0.2248,-0.2285,-0.2262,-0.2288,-0.2273,-0.225,-0.2249,-0.2163,-0.2199,-0.2022,-0.1962,-0.223,-0.2231,-0.2232,0,-0.1858,-0.1884,-0.1892,-0.1942,-0.1941,-0.1976,-0.2033,-0.2091,-0.2181,-0.2221,-0.2272,-0.2304,-0.2345,-0.2338,-0.2363,-0.2351,-0.2339,-0.2333,-0.233,-0.2247,-0.2169,-0.1971,-0.1963,-0.2242,-0.2241,-0.2241,-0.224,0,-0.1779,-0.1827,-0.184,-0.1846,-0.1917,-0.1945,-0.1994,-0.2083,-0.2145,-0.2234,-0.228,-0.2338,-0.235,-0.2382,-0.2373,-0.2372,-0.2395,-0.2377,-0.2283,-0.2272,-0.2123,-0.2097,-0.2428,-0.2428,-0.2428,-0.2428,-0.2428,0,-0.1719,-0.1727,-0.1804,-0.1799,-0.1835,-0.1896,-0.1956,-0.2018,-0.2122,-0.219,-0.2283,-0.2329,-0.2374,-0.2395,-0.2389,-0.2341,-0.24,-0.2309,-0.2274,-0.2123,-0.2099,-0.2355,-0.2348,-0.2426,-0.2427,-0.2427,-0.2427,0,-0.1623,-0.1668,-0.1681,-0.1761,-0.1786,-0.1806,-0.1925,-0.1983,-0.2086,-0.2169,-0.2205,-0.2315,-0.2323,-0.2352,-0.2361,-0.2331,-0.2313,-0.2286,-0.2079,-0.2022,-0.2162,-0.2156,-0.217,-0.2167,-0.2164,-0.2162,-0.216,0,-0.1593,-0.1579,-0.1636,-0.1655,-0.1696,-0.1749,-0.1803,-0.1928,-0.2002,-0.2151,-0.2188,-0.2246,-0.224,-0.2212,-0.2183,-0.2135,-0.2223,-0.1953,-0.194,-0.2181,-0.2145,-0.2144,-0.2142,-0.1728,-0.1723,-0.1719,-0.1715,0,-0.1527,-0.1536,-0.1548,-0.1578,-0.1624,-0.1682,-0.1769,-0.1812,-0.1962,-0.2019,-0.2073,-0.2077,-0.2077,-0.1942,-0.1908,-0.1867,-0.1946,-0.1861,-0.2181,-0.1827,-0.1763,-0.1728,-0.1741,-0.1676,-0.168,-0.1683,-0.1685,-0.1687,-0.1482,-0.1472,-0.1477,-0.1502,-0.1554,-0.1598,-0.1597,-0.1691,-0.1734,-0.1797,-0.1876,-0.1829,-0.1825,-0.1672,-0.1602,-0.1567,-0.1702,-0.1627,-0.1642,-0.166,-0.1625,-0.156,-0.1425,-0.1427,-0.1429,-0.1431,-0.1432,0,-0.1412,-0.1411,-0.1421,-0.1434,-0.1447,-0.1505,-0.1569,-0.154,-0.1517,-0.1584,-0.1578,-0.1424,-0.1335,-0.1359,-0.1247,-0.1227,-0.1229,-0.117,-0.117,-0.1207,-0.1241,-0.1187,-0.0869,-0.0868,-0.0866,-0.0865,0,0,-0.1388,-0.1348,-0.1346,-0.1316,-0.1333,-0.13,-0.1297,-0.1251,-0.1261,-0.1187,-0.1171,-0.1275,-0.1309,-0.1096,-0.1038,-0.0937,-0.1065,-0.0888,-0.1335,-0.1371,-0.1403,-0.1493,-0.1449,0,0,0,0,0]},{"header":{"parameterUnit":"m.s-1","parameterCategory":2,"la1":30.2991,"la2":30.254,"lo1":-89.0895,"lo2":-89.0444,"dy":0.0017,"dx":0.0017,"nx":28,"ny":28,"refTime":"2025-01-14T09:00:00:Z","depth":"2","parameterNumber":3,"parameterNumberName":"V-component_of_CURRENTS"},"data":[0,0,0,0,0,0,0,0,0,0,0,0,0,0,0,0,0,0,0,0,0,0,0,0,0,0,0,0,0,0,0,0,0,0,0,0,0,0,0,0,0,0,0,0,0,0,0,0,0,0,0,0,0,0,0,0,0,0,-0.0161,-0.016,0,-0.0082,-0.0081,-0.008,-0.004,-0.004,-0.004,-0.0041,-0.0012,-0.0011,-0.001,0,0,0,0,0,0,0,0,0,0,0,0,0,-0.0166,-0.0166,-0.0161,-0.016,-0.016,-0.0082,-0.0081,-0.008,-0.004,-0.004,-0.004,-0.0041,-0.0012,-0.0011,-0.001,0,0,0,0,0,0,0,0,0,0,0,0,0,-0.013,-0.0167,-0.0161,-0.0133,-0.013,-0.0083,-0.0081,-0.0079,-0.004,-0.004,-0.004,-0.0041,-0.0013,-0.0011,-0.001,0.001,0,0,-0.0005,-0.0004,0,0,0,0,0,0,0,0,-0.0132,-0.0129,-0.0138,-0.0135,-0.0132,-0.0075,-0.0072,-0.0053,-0.0039,-0.007,-0.0041,-0.0041,-0.004,-0.0036,-0.0014,0.0011,0.0012,-0.0005,-0.0004,-0.0003,-0.0002,0,0,0,0,0,0,0,-0.0135,-0.0132,-0.0126,-0.0137,-0.0133,-0.0087,-0.0083,-0.0067,-0.0051,-0.0067,-0.0065,-0.0062,-0.0038,-0.0015,-0.0013,0.0013,-0.0005,-0.0003,-0.0002,-0.0002,0.0012,0.0011,0,0,0,0,0,0,-0.0158,-0.0135,-0.0128,-0.0124,-0.0137,-0.0087,-0.0083,-0.0089,-0.005,-0.0045,-0.0062,-0.0061,-0.0018,-0.0015,-0.0012,-0.0012,-0.0003,-0.0001,-0.0001,0.0013,0.0012,0.0011,0,0,0,0,0,0,-0.0158,-0.0158,-0.0132,-0.013,-0.0124,-0.0088,-0.0095,-0.0088,-0.0084,-0.0046,-0.0042,-0.0069,-0.0018,-0.0014,-0.0036,-0.0011,-0.0001,0.0001,0.0013,0.0012,0.0012,0.0002,0,0,0,0,0,0,-0.0159,-0.0159,-0.0175,-0.0132,-0.0125,-0.0119,-0.0095,-0.0086,-0.0082,-0.008,-0.005,-0.0046,-0.0018,-0.0039,-0.0034,-0.0008,0.0002,0.0014,0.0013,0.0012,0.0003,0.0001,-0.0001,0,0,0,0,0,-0.0159,-0.0165,-0.0176,-0.0176,-0.0148,-0.012,-0.0112,-0.0084,-0.0082,-0.0082,-0.0082,-0.0048,-0.0041,-0.0039,-0.0033,-0.0006,0.0015,0.0013,0.0012,0.0004,0.0002,-0.0001,0,0,0,0,0,0,-0.0175,-0.0161,-0.0172,-0.0176,-0.0165,-0.0115,-0.01,-0.0099,-0.0093,-0.0098,-0.0071,-0.0067,-0.0061,-0.0052,-0.005,-0.0008,-0.0001,-0.0002,-0.0009,-0.0011,-0.0013,-0.0062,0.0003,0,0,0,0,0,-0.0191,-0.0228,-0.0179,-0.0217,-0.0175,-0.0148,-0.0136,-0.013,-0.0116,-0.0112,-0.0103,-0.0087,-0.0056,-0.0056,-0.0031,-0.0029,-0.0011,-0.0005,-0.0007,-0.0009,-0.0047,-0.0017,-0.0019,0.0007,0.0007,0.0007,0,0,-0.0221,-0.0228,-0.0248,-0.0229,-0.0198,-0.0164,-0.014,-0.0128,-0.0143,-0.0113,-0.013,-0.0095,-0.0059,-0.004,-0.0036,-0.0036,0.0003,-0.001,-0.0012,-0.005,-0.0018,-0.0021,-0.0023,0.0006,0.0006,0.0006,0,0,-0.0287,-0.0277,-0.0297,-0.0265,-0.0239,-0.0208,-0.0212,-0.0167,-0.017,-0.0198,-0.0153,-0.0129,-0.0119,-0.0066,-0.0042,-0.0051,-0.0004,-0.0029,-0.0082,-0.0051,-0.0053,-0.0054,0.0011,0.0015,-0.0036,-0.0036,-0.0036,0,-0.0318,-0.0334,-0.0303,-0.0283,-0.0262,-0.0229,-0.0209,-0.0201,-0.0204,-0.0208,-0.0221,-0.0165,-0.0129,-0.0072,-0.0076,-0.0051,-0.0029,-0.0067,-0.0052,-0.0054,-0.0056,0.0011,0.0016,-0.0036,-0.0036,-0.0036,-0.0036,0,-0.0353,-0.0363,-0.0353,-0.0333,-0.0313,-0.0293,-0.0251,-0.0254,-0.0267,-0.0268,-0.0252,-0.0209,-0.0177,-0.0136,-0.012,-0.0086,-0.0061,-0.0048,-0.0044,-0.0059,0.0014,0.0019,-0.0037,-0.0037,-0.0037,-0.0037,0,0,-0.0402,-0.0382,-0.038,-0.038,-0.0325,-0.0314,-0.0313,-0.029,-0.0305,-0.0307,-0.0316,-0.0257,-0.0235,-0.021,-0.0145,-0.0131,-0.0093,-0.0118,-0.0116,-0.005,-0.0009,0.0039,0.005,-0.0084,-0.0085,-0.0085,0.0064,0,-0.0425,-0.0432,-0.0412,-0.0421,-0.0382,-0.0342,-0.0354,-0.0354,-0.036,-0.0362,-0.0306,-0.0302,-0.0258,-0.0245,-0.0212,-0.0115,-0.0091,-0.0134,-0.0011,-0.0007,0.004,0.0053,0.0021,0.0151,0.0069,0.0069,0.007,0,-0.0415,-0.0436,-0.0445,-0.0456,-0.0428,-0.0442,-0.0432,-0.0442,-0.042,-0.043,-0.0399,-0.0376,-0.0306,-0.0304,-0.0161,-0.0194,-0.013,-0.0071,-0.0062,-0.0027,0.0047,0.0141,0.0163,0.0079,0.0078,0.0077,0.0077,0,-0.0442,-0.0441,-0.0475,-0.0463,-0.0462,-0.0477,-0.0475,-0.0468,-0.0489,-0.0476,-0.0499,-0.041,-0.0367,-0.0287,-0.016,-0.0174,-0.002,-0.0,0.011,0.0117,0.0105,0.0111,0.0045,0.0045,0.0045,0.0044,0.0044,0,-0.0438,-0.0457,-0.0497,-0.0505,-0.055,-0.0526,-0.0573,-0.0557,-0.0557,-0.0577,-0.054,-0.0528,-0.0382,-0.0277,-0.017,0.0009,-0.0008,0.0091,0.0145,0.0107,0.0111,0.0042,0.0039,0.005,0.0049,0.0048,0.0047,0,-0.0453,-0.0472,-0.0509,-0.0547,-0.0565,-0.0594,-0.0634,-0.0669,-0.066,-0.0677,-0.0688,-0.0597,-0.0445,-0.0285,-0.0104,0.0012,0.0158,0.0209,0.0174,0.022,0.028,0.0276,0.036,0.0363,0.0365,0.0367,0.0369,0,-0.0475,-0.0497,-0.056,-0.0606,-0.0631,-0.0679,-0.0724,-0.0721,-0.0758,-0.0716,-0.0729,-0.0604,-0.0499,-0.0181,0.0028,0.0258,0.023,0.0348,0.0302,0.0262,0.0307,0.0298,0.0291,0.0314,0.0315,0.0316,0.0316,0,-0.0506,-0.0528,-0.0561,-0.0671,-0.0736,-0.0797,-0.0851,-0.0881,-0.0867,-0.0861,-0.0786,-0.0696,-0.0399,-0.0137,0.0152,0.0272,0.0315,0.0373,0.0341,0.023,0.0227,0.0268,0.026,0.0323,0.0323,0.0322,0.0322,0.0322,-0.0534,-0.0577,-0.0641,-0.0729,-0.0822,-0.0903,-0.0933,-0.0963,-0.0971,-0.092,-0.0809,-0.0639,-0.0391,0.0026,0.0225,0.0409,0.0403,0.0442,0.0435,0.0429,0.0387,0.0387,0.0509,0.0509,0.0509,0.051,0.051,0,-0.0546,-0.0611,-0.0706,-0.0815,-0.0921,-0.0949,-0.1022,-0.1019,-0.1001,-0.0913,-0.0802,-0.0519,-0.0238,0.0009,0.0305,0.0483,0.0447,0.0506,0.042,0.0413,0.0407,0.036,0.0477,0.0477,0.0478,0.0478,0,0,-0.057,-0.064,-0.0691,-0.0867,-0.0963,-0.1062,-0.1087,-0.1046,-0.0989,-0.0869,-0.0737,-0.0546,-0.024,-0.0035,0.0188,0.0338,0.0321,0.0347,0.0356,0.022,0.0211,0.0358,0.0277,0,0,0,0,0]}],[{"header":{"parameterUnit":"m.s-1","parameterCategory":2,"la1":30.2991,"la2":30.254,"lo1":-89.0895,"lo2":-89.0444,"dy":0.0017,"dx":0.0017,"nx":28,"ny":28,"refTime":"2025-01-14T09:00:00:Z","depth":"4","parameterNumber":2,"parameterNumberName":"U-component_of_CURRENTS"},"data":[0,0,0,0,0,0,0,0,0,0,0,0,0,0,0,0,0,0,0,0,0,0,0,0,0,0,0,0,0,0,0,0,0,0,0,0,0,0,0,0,0,0,0,0,0,0,0,0,0,0,0,0,0,0,0,0,0,0,-0.0735,-0.0736,0,-0.0785,-0.0785,-0.0785,-0.0833,-0.0835,-0.0836,-0.0837,-0.0722,-0.0718,-0.0714,0,0,0,0,0,0,0,0,0,0,0,0,0,-0.0627,-0.0629,-0.0735,-0.0736,-0.0737,-0.0785,-0.0785,-0.0785,-0.0833,-0.0835,-0.0836,-0.0837,-0.0723,-0.0718,-0.0714,0,0,0,0,0,0,0,0,0,0,0,0,0,-0.0671,-0.063,-0.0735,-0.0771,-0.0775,-0.0785,-0.0785,-0.0785,-0.0833,-0.0835,-0.0836,-0.0838,-0.0725,-0.0719,-0.0713,-0.0642,0,0,-0.0694,-0.0692,0,0,0,0,0,0,0,0,-0.0668,-0.0674,-0.0764,-0.0768,-0.0773,-0.0809,-0.0706,-0.0731,-0.0833,-0.0805,-0.0837,-0.0839,-0.0738,-0.0731,-0.0732,-0.0637,-0.0632,-0.0694,-0.069,-0.0687,-0.0686,0,0,0,0,0,0,0,-0.0665,-0.0672,-0.075,-0.0765,-0.0771,-0.0766,-0.0774,-0.0711,-0.0755,-0.0808,-0.0813,-0.0826,-0.0739,-0.0738,-0.0729,-0.063,-0.0694,-0.0688,-0.0685,-0.0682,-0.0568,-0.0568,0,0,0,0,0,0,-0.0671,-0.0669,-0.0748,-0.0752,-0.0729,-0.0767,-0.0776,-0.0792,-0.0759,-0.0759,-0.0825,-0.0828,-0.0747,-0.0736,-0.0725,-0.0741,-0.0687,-0.0682,-0.0678,-0.0567,-0.0568,-0.0568,0,0,0,0,0,0,-0.0668,-0.0677,-0.0746,-0.0715,-0.0725,-0.0768,-0.0785,-0.0792,-0.0816,-0.0775,-0.077,-0.0845,-0.0748,-0.0733,-0.0684,-0.0733,-0.0679,-0.0673,-0.0566,-0.0567,-0.0568,-0.0707,0,0,0,0,0,0,-0.0665,-0.0676,-0.0688,-0.0716,-0.0727,-0.0752,-0.0784,-0.0792,-0.0822,-0.0828,-0.0789,-0.078,-0.0748,-0.0694,-0.0678,-0.0724,-0.0669,-0.0565,-0.0567,-0.0568,-0.0702,-0.0713,-0.0722,0,0,0,0,0,-0.0661,-0.067,-0.0688,-0.0698,-0.0743,-0.0752,-0.0756,-0.0789,-0.0822,-0.0819,-0.0804,-0.0783,-0.0692,-0.0688,-0.067,-0.0715,-0.0565,-0.0566,-0.0568,-0.0697,-0.0711,-0.0722,0,0,0,0,0,0,-0.0633,-0.0678,-0.0698,-0.0723,-0.0737,-0.0762,-0.0767,-0.0797,-0.0787,-0.0795,-0.0766,-0.0753,-0.0742,-0.0689,-0.0686,-0.0684,-0.0633,-0.0631,-0.0738,-0.075,-0.076,-0.0767,-0.0664,0,0,0,0,0,-0.0632,-0.0651,-0.0685,-0.0703,-0.0709,-0.0741,-0.0754,-0.0778,-0.0778,-0.078,-0.0766,-0.0743,-0.0727,-0.0707,-0.0672,-0.0642,-0.0632,-0.0664,-0.0675,-0.0684,-0.0676,-0.0711,-0.0725,-0.0573,-0.0573,-0.0573,0,0,-0.0622,-0.0655,-0.0663,-0.0698,-0.0711,-0.0728,-0.0751,-0.077,-0.0792,-0.076,-0.0773,-0.0768,-0.0726,-0.0722,-0.0712,-0.0686,-0.0726,-0.0686,-0.0695,-0.0681,-0.0715,-0.073,-0.0743,-0.0574,-0.0574,-0.0573,0,0,-0.0608,-0.0641,-0.0647,-0.0676,-0.071,-0.072,-0.0731,-0.0765,-0.0782,-0.0778,-0.0795,-0.0815,-0.0756,-0.0774,-0.0765,-0.0794,-0.0781,-0.0794,-0.0848,-0.0884,-0.0898,-0.0909,-0.0943,-0.0956,-0.0797,-0.0798,-0.0798,0,-0.061,-0.0631,-0.0646,-0.0677,-0.0713,-0.0722,-0.0749,-0.0753,-0.0774,-0.0805,-0.0786,-0.0816,-0.0785,-0.0832,-0.0857,-0.0823,-0.0837,-0.0815,-0.0902,-0.0913,-0.0923,-0.0953,-0.0966,-0.0804,-0.0804,-0.0803,-0.0802,0,-0.0598,-0.064,-0.0646,-0.0691,-0.0714,-0.0738,-0.0761,-0.0792,-0.0814,-0.0838,-0.0887,-0.0866,-0.0898,-0.0908,-0.0883,-0.0962,-0.095,-0.0921,-0.0883,-0.0947,-0.0974,-0.0986,-0.0814,-0.0812,-0.081,-0.0808,0,0,-0.0603,-0.0629,-0.0659,-0.0694,-0.0742,-0.0769,-0.0802,-0.0848,-0.0904,-0.0913,-0.0994,-0.0992,-0.1021,-0.1012,-0.1021,-0.1046,-0.1141,-0.1018,-0.1017,-0.1071,-0.1232,-0.1138,-0.114,-0.1142,-0.1144,-0.1145,-0.1235,0,-0.0614,-0.0662,-0.0682,-0.0751,-0.0778,-0.0832,-0.086,-0.0914,-0.0943,-0.1011,-0.1034,-0.1075,-0.1045,-0.1086,-0.1116,-0.1136,-0.1172,-0.1119,-0.1141,-0.1141,-0.1066,-0.115,-0.1152,-0.1243,-0.1246,-0.1247,-0.1249,0,-0.064,-0.0673,-0.0718,-0.0806,-0.0826,-0.086,-0.0971,-0.1002,-0.1081,-0.1111,-0.1181,-0.1189,-0.1259,-0.1204,-0.1275,-0.125,-0.125,-0.1247,-0.125,-0.1112,-0.1066,-0.1153,-0.1268,-0.1267,-0.1265,-0.1264,-0.1263,0,-0.0654,-0.0739,-0.0772,-0.0808,-0.0867,-0.0923,-0.0966,-0.1046,-0.1087,-0.119,-0.1226,-0.1307,-0.1348,-0.1368,-0.1354,-0.1335,-0.1408,-0.1382,-0.1297,-0.1291,-0.1289,-0.1274,-0.1422,-0.1422,-0.1422,-0.1421,-0.1421,0,-0.0679,-0.0729,-0.0787,-0.0812,-0.0879,-0.0944,-0.1016,-0.1081,-0.1171,-0.1222,-0.1275,-0.1312,-0.1387,-0.1424,-0.1409,-0.1388,-0.1457,-0.1319,-0.1311,-0.1346,-0.1337,-0.1298,-0.1283,-0.1425,-0.1424,-0.1423,-0.1423,0,-0.0661,-0.0697,-0.0749,-0.0835,-0.0867,-0.0923,-0.1018,-0.1075,-0.1154,-0.1234,-0.1266,-0.1357,-0.1403,-0.1441,-0.1493,-0.1444,-0.1435,-0.1402,-0.1452,-0.1443,-0.1288,-0.1279,-0.1348,-0.1346,-0.1344,-0.1342,-0.134,0,-0.0617,-0.0643,-0.0751,-0.0792,-0.0821,-0.0905,-0.0951,-0.1052,-0.1098,-0.1226,-0.1249,-0.1345,-0.1386,-0.1393,-0.1432,-0.1438,-0.1396,-0.1402,-0.1331,-0.1298,-0.1284,-0.1277,-0.1271,-0.1337,-0.1336,-0.1336,-0.1335,0,-0.0544,-0.0603,-0.0652,-0.0729,-0.0792,-0.0853,-0.0926,-0.0954,-0.1072,-0.1157,-0.1217,-0.1256,-0.1313,-0.1351,-0.1369,-0.1349,-0.1412,-0.138,-0.1383,-0.1316,-0.1285,-0.1271,-0.1267,-0.1328,-0.1329,-0.133,-0.133,0,-0.0493,-0.0529,-0.0609,-0.0677,-0.0743,-0.0782,-0.0832,-0.0896,-0.0953,-0.1101,-0.1122,-0.1208,-0.1315,-0.1303,-0.1302,-0.1303,-0.1276,-0.1234,-0.1244,-0.1253,-0.1173,-0.1116,-0.1116,0,0,0,0,0,-0.0466,-0.0509,-0.0556,-0.063,-0.0684,-0.0722,-0.0807,-0.086,-0.0969,-0.0995,-0.1065,-0.1106,-0.1152,-0.1182,-0.1161,-0.1233,-0.1263,-0.1201,-0.1215,-0.1287,-0.1295,-0.1206,0,0,0,0,0,0,-0.0451,-0.0498,-0.0535,-0.0554,-0.0597,-0.0644,-0.0696,-0.078,-0.0787,-0.0915,-0.0935,-0.1042,-0.108,-0.1159,-0.1142,-0.1153,-0.1139,-0.1261,-0.1259,-0.1282,-0.129,-0.1297,-0.1207,0,0,0,0,0]},{"header":{"parameterUnit":"m.s-1","parameterCategory":2,"la1":30.2991,"la2":30.254,"lo1":-89.0895,"lo2":-89.0444,"dy":0.0017,"dx":0.0017,"nx":28,"ny":28,"refTime":"2025-01-14T09:00:00:Z","depth":"4","parameterNumber":3,"parameterNumberName":"V-component_of_CURRENTS"},"data":[0,0,0,0,0,0,0,0,0,0,0,0,0,0,0,0,0,0,0,0,0,0,0,0,0,0,0,0,0,0,0,0,0,0,0,0,0,0,0,0,0,0,0,0,0,0,0,0,0,0,0,0,0,0,0,0,0,0,0.0343,0.0343,0,0.0384,0.0385,0.0386,0.0413,0.0413,0.0413,0.0412,0.0477,0.0479,0.0481,0,0,0,0,0,0,0,0,0,0,0,0,0,0.0387,0.0386,0.0343,0.0343,0.0343,0.0384,0.0385,0.0386,0.0413,0.0413,0.0413,0.0412,0.0476,0.0478,0.0481,0,0,0,0,0,0,0,0,0,0,0,0,0,0.0397,0.0386,0.0343,0.0358,0.0359,0.0384,0.0385,0.0386,0.0413,0.0413,0.0413,0.0412,0.0475,0.0478,0.0481,0.0507,0,0,0.049,0.0491,0,0,0,0,0,0,0,0,0.0396,0.0396,0.0356,0.0357,0.0358,0.0389,0.0424,0.0426,0.0414,0.0398,0.0412,0.0412,0.0446,0.0452,0.0467,0.051,0.0513,0.049,0.0492,0.0493,0.0494,0,0,0,0,0,0,0,0.0395,0.0395,0.0364,0.0356,0.0357,0.0396,0.0397,0.0425,0.0428,0.0399,0.04,0.0397,0.0448,0.0464,0.0469,0.0514,0.049,0.0493,0.0495,0.0496,0.057,0.0571,0,0,0,0,0,0,0.0375,0.0393,0.0363,0.0365,0.0371,0.0395,0.0396,0.0384,0.0428,0.0432,0.0397,0.0398,0.0459,0.0465,0.0471,0.0497,0.0493,0.0496,0.0498,0.057,0.0571,0.0571,0,0,0,0,0,0,0.0376,0.0372,0.0361,0.0377,0.0378,0.0393,0.038,0.0384,0.0401,0.0425,0.0431,0.0409,0.0459,0.0467,0.0499,0.05,0.0497,0.05,0.057,0.057,0.0571,0.0555,0,0,0,0,0,0,0.0377,0.0372,0.0369,0.0375,0.0376,0.0372,0.038,0.0385,0.0397,0.0399,0.0437,0.0442,0.046,0.0494,0.0502,0.0504,0.0502,0.057,0.057,0.0571,0.0555,0.0554,0.0554,0,0,0,0,0,0.0378,0.0373,0.0369,0.0366,0.0367,0.0371,0.0376,0.0391,0.0398,0.0405,0.0433,0.0441,0.0502,0.0497,0.0506,0.0509,0.057,0.057,0.0571,0.0555,0.0554,0.0554,0,0,0,0,0,0,0.039,0.0375,0.0371,0.036,0.0362,0.0374,0.039,0.0392,0.0422,0.0428,0.0452,0.046,0.0485,0.0502,0.0496,0.0531,0.0534,0.0536,0.0519,0.0519,0.0519,0.05,0.0505,0,0,0,0,0,0.0389,0.0386,0.0373,0.0368,0.037,0.0381,0.0389,0.039,0.0409,0.0421,0.0447,0.0474,0.0495,0.051,0.0533,0.056,0.0564,0.0565,0.0564,0.0564,0.0555,0.0584,0.0586,0.0572,0.0572,0.0572,0,0,0.0398,0.0385,0.0387,0.0372,0.0383,0.038,0.0387,0.0395,0.0399,0.0425,0.0457,0.0475,0.0501,0.0526,0.0538,0.0541,0.0565,0.0565,0.0564,0.0555,0.0585,0.0586,0.0587,0.0573,0.0573,0.0573,0,0,0.0405,0.0398,0.0396,0.0391,0.0386,0.0391,0.0388,0.0398,0.0414,0.0439,0.0453,0.0473,0.0518,0.0529,0.0542,0.0555,0.056,0.0559,0.0547,0.0576,0.0577,0.0578,0.0561,0.0561,0.0561,0.0561,0.0561,0,0.0406,0.0392,0.0399,0.0387,0.038,0.0391,0.038,0.0402,0.0421,0.0423,0.0447,0.0489,0.0519,0.0528,0.0534,0.0553,0.0555,0.0547,0.0575,0.0576,0.0578,0.056,0.056,0.056,0.056,0.0561,0.0561,0,0.0404,0.0392,0.0393,0.0377,0.0379,0.0371,0.0381,0.0387,0.0408,0.042,0.0441,0.0486,0.0498,0.0518,0.0537,0.055,0.0541,0.0569,0.0574,0.0578,0.0559,0.0559,0.0559,0.056,0.056,0.056,0,0,0.0371,0.0387,0.0375,0.0363,0.0363,0.0351,0.0365,0.036,0.0349,0.0397,0.0391,0.0449,0.0458,0.0472,0.0495,0.0532,0.0548,0.0554,0.0556,0.0532,0.0577,0.0547,0.0544,0.0586,0.0586,0.0587,0.0551,0,0.0351,0.0328,0.0341,0.0316,0.0306,0.0311,0.0313,0.0314,0.0335,0.0339,0.0386,0.0402,0.0446,0.0448,0.049,0.0532,0.0552,0.0552,0.0581,0.0581,0.0551,0.0545,0.0588,0.0551,0.0551,0.0551,0.0551,0,0.0317,0.0303,0.0283,0.0266,0.0259,0.0248,0.022,0.0226,0.0241,0.0256,0.0279,0.0318,0.0356,0.041,0.0476,0.0474,0.0515,0.056,0.0561,0.0538,0.0552,0.0554,0.0552,0.0552,0.0552,0.0552,0.0552,0,0.0269,0.0247,0.0229,0.0222,0.0216,0.0195,0.0187,0.0191,0.0185,0.02,0.0198,0.0249,0.0267,0.0348,0.0436,0.0456,0.0514,0.0551,0.0553,0.055,0.0595,0.0594,0.0597,0.0597,0.0597,0.0597,0.0597,0,0.0224,0.0206,0.0199,0.018,0.0133,0.0147,0.0103,0.01,0.0101,0.0079,0.0149,0.0146,0.0261,0.0312,0.0402,0.0463,0.048,0.0536,0.0545,0.0585,0.0584,0.0593,0.0593,0.0596,0.0596,0.0596,0.0596,0,0.0199,0.0196,0.0163,0.0132,0.0115,0.008,0.0045,0.001,0.0027,-0.0,0.0005,0.006,0.0117,0.0223,0.0332,0.0396,0.0479,0.0497,0.0488,0.0499,0.0496,0.0496,0.0483,0.0482,0.0481,0.048,0.0479,0,0.0201,0.0185,0.0119,0.0074,0.006,0.001,-0.0035,-0.0036,-0.0058,-0.0055,-0.0069,-0.0026,0.0017,0.0122,0.0254,0.0384,0.0422,0.0447,0.0514,0.0478,0.0487,0.0489,0.049,0.0477,0.0477,0.0477,0.0477,0,0.0204,0.0175,0.0133,0.0038,-0.0026,-0.0091,-0.0137,-0.0165,-0.0172,-0.0154,-0.0157,-0.009,-0.0042,0.0078,0.017,0.0284,0.043,0.0437,0.0441,0.0505,0.0471,0.0482,0.0484,0.0473,0.0473,0.0474,0.0474,0,0.0206,0.0162,0.0091,0.0001,-0.0083,-0.0168,-0.0195,-0.0232,-0.0249,-0.0232,-0.0243,-0.0163,-0.0115,0.0024,0.0123,0.0215,0.0256,0.0307,0.0319,0.0324,0.0312,0.0248,0.0176,0,0,0,0,0,0.0209,0.0146,0.006,-0.0053,-0.014,-0.0189,-0.0252,-0.0269,-0.0278,-0.0302,-0.027,-0.0223,-0.0098,-0.0026,0.0055,0.0126,0.0286,0.0227,0.0353,0.0453,0.0457,0.0471,0,0,0,0,0,0,0.0199,0.0135,0.0061,-0.0072,-0.016,-0.0252,-0.0304,-0.032,-0.0315,-0.0311,-0.0246,-0.0198,-0.0069,-0.0156,0.0054,0.0087,0.018,0.0297,0.0299,0.0451,0.0454,0.0458,0.0473,0,0,0,0,0]}]]